Location: Bonas
(43.7786°N, 0.4127°E)
Time: 21:59:12
(UTC+00:00)

Daily predictions for brighter satellites

Satellite Brightness Start Highest point End
(mag) Time Altitude Azimuth Time Altitude Azimuth Time Altitude Azimuth
BREEZE M DEB (TANK) 4.0 17:06:07 10° W 17:09:45 80° SSW 17:30:49 10° ESE
Cosmos 1821 Rocket 4.3 17:10:59 10° S 17:17:21 81° W 17:23:42 10° N
CZ-4B R/B 4.1 17:15:31 10° S 17:19:49 54° W 17:24:16 10° NNW
H-2A R/B 4.2 17:18:22 10° E 17:20:11 13° ENE 17:21:58 10° NE
Cosmos 1934 Rocket 4.0 17:15:05 10° S 17:21:01 59° E 17:26:57 10° NNE
Radarsat Rocket 4.4 17:15:02 10° SSE 17:21:37 77° ENE 17:29:12 10° NNW
Cosmos 1408 4.2 17:19:39 10° NNE 17:21:49 15° ENE 17:23:58 10° ESE
Cosmos 1602 Rocket 4.4 17:18:29 10° NNE 17:22:14 28° ENE 17:25:57 10° SE
Cosmos 1844 4.4 17:19:21 10° N 17:24:37 34° NE 17:29:47 10° ESE
X-37B 2.5 17:26:08 10° W 17:28:39 25° SSW 17:31:09 10° SSE
SME Rocket 4.4 17:24:40 10° N 17:29:24 65° WNW 17:36:23 10° SSW
Okean O Rocket 2.4 17:25:52 10° SE 17:29:38 30° ENE 17:33:26 10° N
Cosmos 405 Rocket 3.8 17:26:39 10° NNW 17:30:35 52° W 17:34:31 10° S
Cosmos 371 Rocket 3.8 17:27:29 10° SSW 17:32:19 64° WNW 17:37:11 10° NNE
Iridium 4 Rocket 3.6 17:27:34 10° N 17:32:23 56° E 17:37:38 10° SSE
Cosmos 2263 Rocket 3.8 17:27:26 10° NW 17:32:37 40° WSW 17:37:46 10° S
COSMO-SKYMED 1 3.3 17:29:20 10° NNE 17:33:16 32° E 17:37:09 10° SSE
CZ-2C R/B 3.4 17:28:47 10° NNE 17:33:47 33° E 17:38:38 10° SSE
Cosmos 2228 4.3 17:31:59 10° SE 17:35:12 20° E 17:38:26 10° NE
Cosmos 614 Rocket 4.1 17:31:28 10° NNW 17:36:27 52° ENE 17:41:26 10° SE
Cosmos 220 Rocket 4.1 17:32:57 10° S 17:37:17 62° ESE 17:41:38 10° NNE
Cosmos 2333 Rocket 3.1 17:33:26 10° SSE 17:38:04 26° ESE 17:42:44 10° NE
NOSS 2-2 (E) 4.3 17:35:30 10° S 17:38:10 22° ESE 17:40:31 12° ENE
Meteor 2-10 Rocket 3.8 17:33:48 10° SSE 17:39:02 47° E 17:44:04 10° NNE
Tiangong 2.5 17:36:22 10° W 17:39:20 35° SSW 17:42:18 10° SE
CZ-4B R/B 3.4 17:34:11 10° SE 17:39:41 54° ENE 17:45:11 10° N
Cosmos 1980 Rocket 4.4 17:37:08 10° W 17:41:32 23° NW 17:45:58 10° N
CZ-4C R/B 4.1 17:39:26 10° NE 17:42:00 21° E 17:44:31 10° SSE
Cosmos 2251 Rocket 3.5 17:39:29 10° NNW 17:44:41 58° ENE 17:49:50 10° SE
Cosmos 44 3.6 17:39:36 10° SSW 17:45:02 88° SE 17:50:24 10° NE
Cosmos 1892 3.3 17:43:45 10° N 17:47:12 34° ENE 17:50:38 10° SE
Okean 1-7 Rocket 3.8 17:42:53 10° NNW 17:47:20 75° W 17:51:47 10° S
Lacrosse 4 Rocket 2.1 17:46:34 10° NW 17:50:52 61° WSW 17:55:13 10° SSE
Cosmos 1758 Rocket 4.0 17:48:27 10° N 17:52:30 37° ENE 17:56:34 10° SE
FALCON 9 DEB 2.8 17:49:48 10° WSW 17:52:44 74° NW 17:54:55 17° NE
CZ-4C R/B 3.4 17:52:18 10° SE 17:55:17 17° ESE 17:56:18 16° E
Cosmos 1626 Rocket 3.5 17:51:07 10° N 17:55:28 89° W 17:59:48 10° S
Landsat 5 3.8 17:52:06 10° NNE 17:56:30 51° E 18:00:53 10° S
Cosmos 2322 4.4 17:51:43 10° SSE 17:56:46 34° ESE 18:01:51 10° NE
Helios 1B 4.5 17:53:41 10° NNE 17:58:02 72° ESE 18:02:20 10° S
Cosmos 2123 Rocket 4.3 17:53:49 10° NNW 18:00:07 72° W 18:06:21 10° S
Okean-O 4.1 18:00:16 17° ENE 18:00:26 17° ENE 18:03:17 10° NNE
Cosmos 1844 Rocket 2.6 17:57:57 10° NNW 18:03:33 77° ENE 18:09:07 10° SSE
CZ-4 R/B 2.2 18:01:33 10° SE 18:05:04 29° ENE 18:08:41 10° N
USA 215 3.5 17:58:39 10° NE 18:05:10 70° NW 18:11:39 10° WSW
Cosmos 2344 4.4 18:00:03 10° NW 18:09:20 81° NE 18:22:27 10° SE
CZ-2D R/B 4.1 18:07:33 10° S 18:11:19 53° W 18:15:09 10° NNW
SL-8 R/B 4.1 18:08:28 10° WNW 18:13:09 51° N 18:15:44 25° ENE
USA 229 DEB 3.9 18:07:03 10° SW 18:13:24 69° NW 18:20:14 10° NNE
USA 229 3.9 18:07:09 10° SW 18:13:30 69° NW 18:20:20 10° NE
Meteor 1-4 Rocket 3.4 18:10:59 10° SSW 18:14:21 50° WNW 18:17:42 10° N
Cosmos 1455 2.4 18:13:07 10° SSE 18:16:46 46° E 18:20:24 10° NNE
Cosmos 1190 Rocket 4.5 18:12:09 10° N 18:17:01 38° ENE 18:20:02 20° ESE
Feng Yun 1-1 Rocket 4.3 18:12:31 10° SSE 18:18:01 59° ENE 18:23:43 10° N
Cosmos 2056 Rocket 4.0 18:13:34 10° SSE 18:18:07 33° E 18:20:42 21° NE
FALCON 9 DEB 3.8 18:15:36 10° W 18:18:23 39° NNW 18:19:34 25° NNE
Cosmos 292 Rocket 4.3 18:14:49 10° SSE 18:19:14 36° ESE 18:21:44 22° NE
H-2A R/B 3.1 18:20:27 25° ESE 18:20:27 25° ESE 18:23:12 10° SSE
YAOGAN 1 2.8 18:16:25 10° SE 18:20:31 44° ENE 18:24:38 10° N
ATLAS 5 CENTAUR R/B 4.3 18:20:36 10° NNW 18:21:05 10° NNW 18:21:35 10° NNW
Cosmos 1825 2.4 18:17:48 10° N 18:21:24 42° ENE 18:23:12 24° SE
SKYMED 2 3.7 18:17:05 10° N 18:21:26 77° WNW 18:25:45 10° SSW
Cosmos 2100 Rocket 4.2 18:19:20 10° SSE 18:25:19 47° E 18:31:22 10° NNE
NOSS 2-2 (C) 3.0 18:22:13 10° SSW 18:25:33 56° ESE 18:26:17 44° ENE
Spot 2 4.0 18:21:39 10° SSE 18:25:49 64° ENE 18:30:17 10° N
Cosmos 1606 Rocket 3.6 18:25:54 10° S 18:30:17 59° E 18:34:40 10° NNE
Cosmos 2173 Rocket 4.2 18:24:55 10° SSE 18:30:49 48° E 18:36:50 10° NNE
FALCON 9 DEB 3.7 18:30:17 10° WSW 18:33:38 53° NNW 18:34:35 38° NNE
NOSS 3-1 (A) 4.2 18:31:01 10° WSW 18:36:09 45° NW 18:42:13 10° NNE
CENTAUR R/B 4.2 18:30:49 10° NNW 18:37:16 27° NNE 18:40:07 23° ENE
FALCON 9 DEB 3.7 18:35:07 10° W 18:37:55 39° NNW 18:38:14 37° N
Cosmos 2278 Rocket 3.2 18:33:50 10° N 18:38:33 27° NE 18:38:33 27° NE
USA 267 3.3 18:33:17 16° SE 18:38:40 84° SW 18:45:15 10° NW
Cosmos 1802 Rocket 4.2 18:35:19 10° SSE 18:41:04 44° E 18:46:52 10° NNE
COSMOS 2428 2.7 18:37:01 10° S 18:42:32 56° ESE 18:45:32 27° NE
EXPRESS MD2 4.0 18:41:39 10° WSW 18:42:52 29° W 18:42:52 29° W
SL-16 R/B 4.3 18:40:38 10° WSW 18:45:12 24° NW 18:49:48 10° N
SL-24 R/B - RUBIN 2 4.1 18:39:17 10° SSW 18:45:22 68° ESE 18:47:58 33° NE
SL-08 RB Rocket 3.7 18:41:00 10° SSE 18:45:35 84° WSW 18:50:15 10° NNW
MetOp-A 4.3 18:44:20 39° ESE 18:45:40 47° ENE 18:50:48 10° N
Cosmos 2333 4.3 18:40:10 10° SSW 18:45:48 78° WNW 18:51:32 10° NNE
IRS-1C Rocket 4.1 18:43:15 24° SE 18:46:23 59° ENE 18:51:35 10° N
Cosmos 1371 Rocket 3.8 18:44:55 10° SSW 18:50:09 74° ESE 18:53:36 22° NNE
FALCON 9 DEB 4.2 18:48:03 10° W 18:50:33 33° NW 18:50:33 33° NW
ARGOS 3.8 18:47:26 10° S 18:52:43 56° W 18:58:04 10° NNW
Cosmos 2322 Rocket 4.1 18:49:42 10° WSW 18:54:22 26° NW 18:59:03 10° N
Cosmos 2219 Rocket 2.1 18:49:12 10° SSW 18:54:48 89° ESE 18:58:59 19° NNE
H-2A R/B 2.8 18:50:59 10° S 18:55:09 65° WSW 18:59:13 10° NNW
H-2A R/B 4.0 18:51:43 10° SSW 18:56:32 32° W 19:01:24 10° NNW
Cosmos 1408 4.3 18:53:39 10° NNW 18:56:52 32° W 19:00:03 10° SSW
Cosmos 1624 Rocket 3.9 18:52:57 10° SSW 18:58:15 79° ESE 19:01:15 27° NNE
Cosmos 1726 Rocket 3.5 18:54:11 10° S 18:58:38 89° W 19:03:07 10° N
Lacrosse 5 2.5 18:54:47 10° SSW 18:58:38 38° SSE 18:58:38 38° SSE
Cosmos 1140 Rocket 3.7 18:55:21 10° NNW 19:00:33 69° WSW 19:05:03 14° S
Cosmos 2360 Rocket 3.6 18:55:41 10° WSW 19:00:51 36° NW 19:06:06 10° N
Orbus 7S? 4.0 18:55:17 10° NW 19:02:32 65° SW 19:03:23 51° S
Milstar 3 Cent rocket 4.3 18:58:23 10° SSW 19:03:30 25° SSE 19:05:10 23° SE
Okean O Rocket 3.7 19:02:15 10° SSW 19:05:57 27° W 19:09:40 10° NW
Cosmos 407 Rocket 4.2 19:05:49 10° NNW 19:11:01 54° WSW 19:16:12 10° S
Cosmos 2058 4.3 19:08:42 10° N 19:10:53 30° N 19:10:53 30° N
Cosmos 2016 Rocket 3.8 19:06:52 10° S 19:12:58 66° E 19:19:03 10° NNE
CZ-2C R/B 4.2 19:09:01 10° N 19:14:02 36° WNW 19:18:58 10° SW
Cosmos 2346 Rocket 4.4 19:07:59 10° N 19:14:18 87° E 19:19:32 15° S
Meteor 2-1 Rocket 4.0 19:09:30 10° S 19:15:06 80° E 19:20:40 10° NNE
Tiangong 4.2 19:14:46 10° SW 19:15:15 11° SW 19:15:15 11° SW
Cosmos 1943 Rocket 4.4 19:13:28 10° N 19:14:16 12° NNE 19:14:16 12° NNE
DMSP B5D2-2 4.4 19:16:41 10° N 19:21:53 66° WNW 19:27:01 10° SSW
Cosmos 2333 Rocket 3.1 19:16:33 10° SW 19:22:02 48° WNW 19:26:47 14° NNE
CSL-04 Debris 4.0 19:22:51 83° SSE 19:23:05 89° ENE 19:28:33 10° NNW
Cosmos 676 Rocket 4.1 19:19:17 10° NNW 19:23:55 70° NNW 19:23:55 70° NNW
Cosmos 1954 Rocket 4.0 19:19:39 10° NNW 19:24:31 76° NNW 19:24:31 76° NNW
CSL-04 Rocket 3.6 19:29:42 84° NNW 19:29:42 84° NNW 19:35:07 10° NNW
Cosmos 1420 Rocket 4.4 19:27:33 10° SSW 19:31:43 57° SW 19:31:43 57° SW
Okean-O 3.9 19:37:51 38° NW 19:37:51 38° NW 19:40:50 10° NNW
CZ-4 R/B 3.6 19:37:16 13° SW 19:40:02 24° W 19:43:26 10° NW
CZ-4C R/B 2.7 19:38:02 10° SW 19:41:33 48° WSW 19:41:33 48° WSW
USA 215 4.5 19:45:32 28° NNE 19:47:32 33° NNW 19:53:13 10° WNW
Cosmos 2061 Rocket 4.2 19:46:06 10° SSW 19:52:26 70° W 19:58:52 10° N
H-2A R/B 4.4 19:57:33 19° WSW 19:57:33 19° WSW 19:59:06 10° SW
Cosmos 2278 Rocket 3.8 20:17:30 10° NW 20:20:25 30° NW 20:20:25 30° NW
CENTAUR R/B 3.6 20:21:15 10° NW 20:27:18 54° NNW 20:27:18 54° NNW
